Wind_Speed
28 27 27 26 26 26 26 25 25 24 24 24 24 24 24 23 23 24 24 24 24 24 24 24 23 23 23 23 22 22 23 23 24 24 25 25 25 25 24 24 23 23 23 23 23 24 24 24 24 24 25 25 26 26 26 25 25 25 25 25 25 25 24 24 24 24 24 23 22
29 29 28 27 26 26 25 25 24 24 24 24 24 24 24 24 24 24 24 24 24 24 24 24 24 24 23 23 23 22 22 22 22 23 23 24 25 25 24 24 23 23 23 23 23 24 24 24 24 25 25 26 26 26 26 26 26 25 24 24 24 24 23 23 23 23 22 21 20
30 29 28 27 26 26 25 25 25 25 25 24 24 24 24 24 24 24 24 24 24 24 24 24 24 24 24 24 24 23 22 22 22 22 22 23 24 24 24 24 23 23 23 23 24 24 24 24 24 25 25 25 26 26 26 26 26 25 24 24 24 23 22 22 22 21 20 19 18
31 30 29 28 28 28 27 26 25 25 25 24 23 23 23 23 23 23 24 24 24 24 24 25 25 25 25 25 24 24 23 22 22 21 21 22 23 23 24 24 23 23 23 23 24 24 24 24 24 24 24 24 25 25 26 26 26 25 25 24 23 22 21 21 20 19 18 17 17
32 31 30 30 29 29 28 26 25 25 25 24 23 23 23 23 23 23 23 24 24 25 25 25 25 25 25 25 25 25 24 24 23 22 22 22 22 22 23 24 24 24 24 24 24 24 24 24 24 24 24 24 24 24 24 24 24 24 24 23 22 21 20 19 18 18 17 16 17
32 32 31 30 30 29 28 26 25 25 24 24 24 24 24 23 23 23 23 24 24 25 25 25 25 25 25 25 25 25 25 25 24 23 22 22 22 22 22 23 23 24 24 24 24 24 24 23 23 24 24 24 24 24 23 23 23 23 23 22 21 21 20 19 18 17 17 16 16
32 32 32 30 29 28 27 26 25 25 25 24 25 25 25 24 24 24 24 24 24 24 25 25 25 25 25 25 25 25 25 25 25 25 23 22 22 22 22 22 23 23 24 24 24 24 23 23 23 24 24 24 24 24 23 22 22 22 22 21 21 21 20 18 18 17 16 15 13
32 32 32 31 30 29 28 27 26 25 25 25 26 26 26 25 24 24 24 24 24 25 25 25 25 25 25 25 25 25 25 25 25 25 24 23 22 22 22 22 22 23 23 24 23 23 23 24 24 24 25 24 24 24 23 22 21 20 20 20 20 20 19 18 17 16 14 12 11
30 31 31 31 30 29 28 27 26 26 26 26 26 26 26 25 25 24 24 24 24 25 25 25 25 25 24 24 24 24 25 25 25 25 25 24 23 22 21 21 22 22 23 23 23 23 24 25 25 25 24 24 24 24 23 22 20 19 19 19 19 18 17 16 15 13 11 10 8
30 30 31 30 30 29 28 27 27 27 26 26 26 26 26 25 25 25 24 24 24 24 24 25 25 24 24 24 24 24 24 24 24 25 25 24 23 22 22 21 22 22 22 22 23 24 25 26 25 24 24 24 23 23 22 21 19 18 18 17 17 16 14 13 12 10 8 8 7
31 31 30 30 30 29 28 28 27 27 26 26 26 26 26 26 26 25 24 24 24 24 24 24 24 24 24 24 23 23 23 23 24 24 24 24 24 23 22 22 22 22 22 22 23 24 25 25 24 24 24 24 23 22 21 20 19 17 16 15 14 14 12 10 9 8 7 8 9
31 30 30 30 29 29 28 28 27 26 26 26 26 26 26 26 26 26 25 24 24 24 24 24 24 24 23 23 23 23 23 23 23 23 23 23 23 23 23 22 22 22 22 22 22 23 23 23 23 24 24 23 22 20 20 20 18 16 14 13 12 11 10 9 9 9 10 10 11
31 30 29 29 29 28 28 28 27 26 26 26 26 27 27 27 26 26 25 25 25 24 24 24 23 23 23 23 22 22 22 22 22 22 22 23 23 23 23 23 22 22 22 22 22 22 22 22 23 24 23 22 21 20 19 18 17 15 13 12 11 11 11 12 12 12 12 12 11
31 29 29 28 28 28 28 28 27 26 26 26 27 27 27 27 27 26 26 26 25 25 24 24 23 23 22 22 22 22 22 21 21 21 21 22 23 23 23 23 22 22 22 21 21 21 21 21 22 23 22 21 19 18 17 16 15 14 13 13 13 14 14 15 14 13 12 12 10
30 30 29 28 28 28 28 28 27 26 26 26 27 27 26 26 27 27 27 26 25 25 24 24 23 23 22 22 21 21 21 21 20 21 21 22 23 24 24 23 22 22 21 21 20 20 21 21 21 21 20 19 18 16 15 14 13 13 13 14 15 16 16 15 14 12 11 9 9
31 30 29 29 29 29 28 28 27 26 26 27 27 27 26 26 26 27 27 26 26 25 24 24 24 23 22 22 21 21 20 20 20 20 21 22 23 24 24 23 22 22 21 20 20 20 20 19 19 18 18 17 16 15 14 13 14 14 16 17 17 17 16 14 12 11 9 8 8
31 30 30 29 29 29 29 29 27 26 26 27 27 27 26 26 26 27 27 27 26 25 25 24 24 23 23 22 21 21 20 20 20 20 22 23 24 24 23 23 22 21 21 20 20 19 18 17 16 16 16 16 15 15 14 15 16 17 18 18 17 15 14 12 11 10 9 8 8
31 31 30 30 30 30 30 30 28 27 27 27 27 27 26 26 27 27 27 27 26 26 25 25 24 24 23 23 22 21 20 20 20 21 22 23 23 23 23 22 22 21 21 20 19 19 17 16 16 15 15 15 15 15 16 18 19 20 19 18 16 14 13 12 10 9 9 8 8
31 31 31 31 31 31 31 30 29 28 28 28 27 26 26 26 27 28 28 27 27 26 26 25 25 24 23 23 22 21 20 20 20 21 22 23 23 23 22 21 21 21 20 19 19 18 17 17 16 16 16 16 16 18 19 21 21 21 19 17 15 14 13 12 11 10 9 8 8
32 31 32 32 32 31 31 31 29 28 28 27 27 26 26 27 27 28 28 28 27 26 26 26 25 25 24 23 22 21 21 20 21 22 23 23 23 22 21 21 21 20 19 18 18 17 17 17 17 17 17 18 20 22 23 23 22 20 18 17 15 14 13 12 11 10 9 9 8
32 32 32 32 31 31 31 30 29 28 28 27 26 26 27 27 28 28 28 28 27 26 26 26 26 25 24 24 23 22 21 21 22 23 23 23 22 22 21 21 20 20 19 18 17 17 17 17 18 18 19 21 23 25 25 24 22 20 18 17 16 15 13 12 11 11 10 10 9
32 32 32 31 30 30 30 29 29 28 27 26 27 27 27 28 28 28 28 27 27 27 26 26 26 25 25 24 23 23 22 22 23 23 23 22 22 22 22 21 20 19 19 18 18 18 18 18 19 20 22 24 26 26 25 23 22 20 19 18 16 15 14 13 12 12 12 12 13
32 32 31 30 29 29 29 29 28 27 27 27 27 27 28 28 28 28 28 27 27 27 26 26 25 25 24 24 24 23 23 23 23 23 23 23 22 22 22 21 20 19 19 19 19 19 20 21 22 23 25 26 27 26 24 22 21 20 19 18 17 16 15 14 14 14 15 16 17
32 31 30 29 29 28 28 28 28 27 27 27 28 28 29 29 29 28 28 28 27 27 26 25 25 24 24 24 24 24 24 24 24 23 23 23 22 22 22 21 20 19 19 19 20 20 21 23 25 26 27 27 27 25 23 22 21 20 19 19 18 17 17 16 16 17 18 20 20
31 31 30 29 29 29 29 29 28 28 28 28 29 29 30 30 29 29 29 28 27 27 26 25 24 24 24 25 25 25 25 25 25 25 24 24 23 22 22 21 20 20 20 20 20 21 22 24 26 27 28 28 26 25 23 21 20 19 18 18 18 19 20 19 19 19 19 20 21
31 30 30 29 29 29 29 29 29 29 29 29 30 30 30 30 30 30 29 28 27 27 26 25 25 25 26 26 26 25 25 25 25 25 25 25 24 23 22 22 21 21 21 22 22 22 23 25 26 27 27 27 26 24 23 21 20 19 18 18 19 20 21 22 21 19 19 18 18
31 30 30 30 30 30 30 30 30 30 30 31 31 31 31 31 30 30 29 28 28 27 26 26 26 27 27 26 26 26 25 25 25 25 26 25 24 24 23 22 22 23 23 23 23 24 24 25 25 26 26 25 24 23 22 21 20 19 19 19 20 21 21 22 21 19 18 17 16
31 30 30 30 30 31 31 31 31 31 31 32 32 32 32 31 30 30 29 29 28 28 27 27 27 27 27 26 26 26 26 26 25 25 25 25 24 24 24 23 24 24 25 25 25 25 25 24 24 24 24 24 23 22 21 21 21 21 21 21 21 21 21 21 20 19 18 17 15
31 31 31 31 31 31 31 31 31 32 32 32 33 32 32 31 31 31 30 30 30 29 28 28 27 27 26 26 26 26 26 26 26 25 25 25 25 25 25 25 26 26 26 26 26 25 24 24 24 23 23 23 22 22 21 22 22 22 23 22 22 21 21 20 19 18 17 16 16
31 31 31 32 32 31 31 32 32 32 32 32 32 33 32 32 32 31 31 31 30 30 29 29 28 27 27 27 27 27 27 26 26 26 26 26 26 26 27 27 28 28 27 27 26 25 24 24 24 23 23 22 22 22 23 23 24 24 24 23 22 21 21 20 19 18 17 16 16
31 31 32 32 32 31 31 32 32 32 32 32 33 33 33 32 32 32 31 31 31 30 30 30 29 29 28 28 28 28 28 27 27 27 27 28 28 29 29 29 29 29 28 27 26 25 25 25 24 24 23 22 22 23 24 25 25 24 24 23 22 21 20 19 18 17 16 16 16
31 32 32 32 32 31 31 32 32 32 33 33 33 33 33 32 32 32 31 31 31 31 31 30 30 30 30 29 29 29 28 28 28 28 29 29 30 31 31 30 30 29 28 27 26 26 26 26 25 25 24 23 24 25 26 26 26 24 23 22 21 20 19 18 17 16 15 15 15
32 32 32 32 32 32 32 32 32 33 33 33 33 33 32 32 31 31 31 31 31 31 31 31 31 31 30 30 29 29 29 29 29 30 30 31 32 33 32 31 30 29 28 27 27 27 26 26 26 25 25 25 26 27 27 27 26 25 24 22 21 19 18 18 17 16 15 14 14
32 32 32 32 32 32 32 33 33 34 33 33 32 32 32 32 32 31 31 31 31 32 32 32 32 32 31 31 30 30 30 30 31 32 32 33 34 34 33 31 30 28 28 28 27 27 27 27 26 26 26 27 28 28 28 27 26 25 24 23 21 20 18 17 16 15 14 14 13
33 33 33 33 33 33 33 33 33 33 33 32 32 32 32 32 32 32 31 31 31 31 31 31 31 32 31 31 31 32 32 32 33 34 34 35 35 35 34 32 30 28 28 28 27 27 27 27 27 27 28 28 29 29 28 27 26 25 24 23 22 20 19 18 17 15 14 13 13
34 34 34 33 33 33 33 33 33 33 32 32 32 32 32 32 32 32 32 32 32 31 30 30 31 31 31 31 32 32 33 35 35 35 35 36 36 35 34 32 30 28 27 27 27 27 26 26 27 27 28 29 29 29 28 27 27 26 25 24 23 21 19 18 17 16 14 13 13
34 35 35 34 34 34 34 33 33 32 32 32 32 32 32 31 31 32 33 33 33 32 31 31 31 31 31 32 32 33 35 37 37 37 36 36 36 35 35 33 31 28 27 27 27 26 26 26 26 27 28 29 30 29 29 28 28 27 26 25 23 22 20 18 17 16 15 14 13
34 35 35 35 34 34 34 33 33 32 32 32 32 32 32 32 32 32 33 33 33 33 32 32 31 32 32 33 34 35 36 37 38 38 37 36 36 36 35 34 31 29 27 27 26 26 26 26 26 26 27 29 30 30 30 30 30 29 27 26 24 22 20 19 18 17 16 15 15
34 35 35 35 35 34 33 33 33 32 32 32 32 32 33 33 32 32 32 33 34 34 34 33 32 32 33 35 35 35 35 35 36 37 37 36 35 35 35 34 32 29 28 27 26 26 26 26 26 26 26 28 30 31 31 31 31 30 28 27 25 23 21 20 19 18 18 17 16
33 34 35 35 35 34 33 33 33 33 33 33 33 33 33 32 32 32 32 32 33 34 34 34 34 34 35 36 35 34 33 33 33 34 35 35 34 34 34 34 32 30 28 27 26 26 26 26 26 26 27 29 30 31 31 32 31 30 29 27 26 25 23 21 20 20 19 18 17
33 34 34 34 34 34 34 33 33 34 34 34 34 34 33 33 32 32 31 32 33 34 34 35 35 36 36 36 36 34 33 31 31 32 34 34 34 33 33 33 33 31 29 27 27 26 26 26 26 26 27 29 31 31 31 31 31 31 29 28 27 26 25 23 21 20 19 18 18
Wind_Direction
204 204 204 204 204 204 205 206 206 205 204 203 202 201 200 197 198 199 199 199 199 199 199 200 200 200 201 202 205 206 206 206 207 207 208 208 209 209 210 210 210 209 209 211 213 216 218 220 220 222 225 228 231 232 234 235 238 240 242 244 246 248 249 249 249 248 248 247 248
205 205 205 205 205 205 205 206 206 206 206 205 203 202 201 199 199 199 200 200 201 201 201 201 201 201 201 202 204 206 206 206 205 206 207 208 210 211 211 211 211 210 211 212 214 216 218 219 219 220 223 227 230 232 233 234 236 238 241 244 247 249 249 249 250 250 249 248 249
205 205 205 205 205 205 205 206 206 206 205 205 204 203 202 201 201 201 202 202 202 202 201 201 201 202 202 202 204 206 207 207 205 205 205 207 209 211 212 212 211 212 212 214 215 218 219 220 218 218 220 224 229 231 233 234 235 236 239 244 247 249 249 249 249 249 249 249 251
205 205 205 205 206 205 205 205 205 205 204 204 203 203 203 202 203 203 203 203 202 201 201 201 202 203 204 204 204 206 207 208 207 205 205 206 208 210 211 212 211 211 212 214 216 219 221 220 219 218 220 224 229 232 235 235 235 236 238 242 245 246 246 247 247 247 248 251 257
205 206 206 206 207 207 206 206 205 204 203 202 201 201 202 203 203 203 203 203 202 202 202 202 203 204 205 206 206 207 208 208 208 207 206 206 208 210 211 211 211 211 212 215 217 219 221 221 221 222 224 228 232 235 237 237 235 235 236 238 240 242 243 243 244 246 250 256 261
205 206 207 207 207 207 207 207 205 204 202 201 200 200 200 201 201 201 201 201 202 203 203 203 204 205 206 208 208 209 209 209 209 208 207 206 208 209 210 210 211 212 213 215 218 220 222 223 224 226 228 231 233 236 237 236 234 232 232 233 236 238 239 240 243 249 255 260 262
206 206 207 207 207 207 206 206 205 204 202 201 200 200 200 200 200 201 201 202 202 202 202 203 204 206 207 208 209 210 210 210 209 209 208 207 207 208 208 209 210 211 213 215 218 220 222 224 225 226 228 229 231 232 233 232 231 230 230 231 234 236 238 240 246 252 256 259 261
206 207 207 207 207 206 206 205 204 203 201 201 201 201 202 201 200 201 202 202 201 201 201 202 204 206 208 209 210 211 211 210 210 209 208 208 208 208 208 209 209 211 213 215 218 220 222 224 225 225 225 226 226 228 229 229 229 229 229 229 232 234 237 241 246 250 253 256 259
206 207 207 207 207 206 205 204 203 202 201 201 201 202 203 202 201 201 201 201 201 201 201 202 204 207 209 210 211 212 212 212 210 209 209 209 209 209 208 208 209 210 212 215 218 220 221 221 222 223 224 224 224 224 225 226 227 227 227 227 228 231 236 241 244 247 249 251 247
205 206 206 206 206 206 205 204 204 203 203 202 202 202 203 202 202 202 201 201 201 201 201 202 205 206 208 211 212 213 213 213 211 209 209 209 209 209 209 209 209 210 211 214 217 219 219 218 219 221 223 224 224 223 222 223 225 225 224 224 225 228 233 237 238 238 236 230 215
205 205 205 205 205 204 203 203 203 203 203 202 202 202 202 202 202 203 202 201 200 200 201 204 205 207 209 211 213 214 214 213 211 209 208 208 208 209 209 210 210 211 212 214 217 218 218 218 219 220 222 224 223 222 221 222 222 221 218 219 222 224 225 224 220 210 200 191 182
205 205 204 204 203 203 202 201 201 202 202 202 201 201 200 201 202 202 201 200 199 200 202 205 207 208 209 211 213 214 214 213 211 209 207 207 207 208 210 211 212 213 215 217 219 220 219 219 219 219 220 221 221 220 219 219 217 214 212 213 217 215 205 191 181 173 168 167 167
205 204 204 203 202 201 200 200 200 201 201 201 200 199 199 200 201 200 199 199 199 200 202 205 207 209 210 211 212 213 212 211 210 207 206 206 206 208 209 211 212 214 217 219 221 221 220 219 219 217 216 216 217 216 215 214 211 209 207 205 200 188 174 163 158 156 157 159 161
204 203 202 202 200 200 199 199 200 200 199 199 199 198 197 198 199 199 198 198 199 200 201 203 206 208 210 211 212 212 211 209 207 205 204 204 206 207 209 210 212 214 216 218 220 220 219 217 216 214 212 210 209 209 207 206 205 204 200 190 175 163 156 151 150 151 153 155 156
203 203 201 200 199 198 198 198 198 197 197 197 197 196 195 196 197 197 197 197 198 199 201 202 203 206 208 211 211 211 209 206 204 203 202 204 205 207 208 210 211 213 214 215 216 217 216 214 211 209 207 204 201 199 198 196 196 192 184 172 161 153 149 147 147 148 150 151 149
202 201 200 199 198 197 197 197 196 196 195 195 195 195 195 194 194 194 194 195 196 198 199 200 201 202 205 208 209 208 206 203 201 200 201 203 204 206 207 209 210 211 212 212 213 213 211 208 205 203 202 200 196 192 188 185 179 171 163 156 151 147 144 143 141 141 142 143 138
200 200 199 198 197 196 196 197 196 195 194 194 193 193 193 192 191 191 192 193 194 195 196 198 199 200 201 203 204 204 201 199 198 199 201 203 204 204 206 207 208 209 210 210 210 207 203 199 199 199 198 195 189 183 177 169 161 154 149 145 142 140 137 135 134 133 132 131 127
199 198 197 197 196 196 196 195 194 193 192 193 192 191 191 191 189 188 190 192 193 194 195 196 197 198 198 199 199 199 198 196 197 199 201 202 203 203 203 204 205 206 207 209 206 201 195 192 193 193 191 186 179 170 162 155 149 144 140 137 134 131 129 127 126 127 126 125 122
197 197 196 196 196 196 195 194 192 191 191 193 192 190 189 189 187 186 187 190 193 194 194 194 195 196 197 196 195 195 195 195 196 198 199 201 201 200 199 199 200 202 204 204 201 195 191 189 188 185 180 172 164 157 151 146 142 138 134 131 128 126 124 123 122 122 122 121 120
196 196 196 196 196 195 194 192 191 190 191 192 191 189 187 187 186 186 186 188 191 194 194 193 193 193 194 194 193 192 192 194 195 196 197 198 197 195 193 194 196 198 199 197 193 189 186 183 181 177 171 162 155 149 145 142 138 134 130 128 125 123 122 122 122 122 122 122 122
196 196 196 196 195 193 191 189 189 190 191 190 188 187 185 185 185 185 186 188 190 192 192 193 192 192 191 190 189 188 189 191 193 194 193 192 191 190 190 192 192 192 192 190 187 183 180 177 173 168 161 156 151 147 143 140 136 133 130 128 125 123 122 122 123 123 122 121 120
196 196 196 195 193 191 189 188 189 190 189 187 186 185 183 183 184 185 186 187 188 189 191 192 192 191 190 188 186 185 185 187 189 189 188 186 186 187 189 190 189 187 185 183 181 178 174 169 164 159 154 151 148 145 143 139 137 134 132 129 126 123 122 123 124 123 120 117 115
195 195 194 194 192 189 188 188 188 187 185 184 183 182 181 181 182 183 185 185 186 187 189 189 190 189 187 184 183 182 181 181 181 181 181 181 181 183 185 186 185 182 180 179 177 172 166 160 155 153 151 149 146 144 142 140 138 136 133 130 127 125 124 124 123 121 118 116 113
193 192 192 191 190 188 187 186 184 183 182 181 179 179 178 179 180 181 182 183 184 185 185 184 184 183 181 179 180 180 179 177 174 174 175 176 177 178 179 180 179 178 177 176 174 170 164 157 153 151 150 148 146 144 142 141 139 137 134 132 129 127 125 124 122 120 119 117 115
191 191 190 188 186 185 184 183 181 180 179 178 176 176 176 176 177 178 179 180 180 180 179 178 177 176 176 176 177 178 177 175 173 171 171 171 173 174 174 174 173 173 172 170 170 168 164 160 156 153 150 148 146 143 141 140 138 136 134 133 131 129 126 124 123 122 121 121 119
189 188 187 185 183 181 181 179 178 177 176 175 173 173 173 174 175 176 176 175 175 175 174 172 172 172 173 173 174 173 173 172 171 170 169 168 169 169 169 169 167 166 165 164 164 164 162 160 157 154 151 148 145 142 140 137 136 135 134 134 133 131 128 126 124 123 123 123 122
186 184 183 182 179 178 177 177 175 173 172 171 170 170 170 171 172 172 172 171 170 169 169 169 169 170 170 170 169 168 167 167 167 168 168 167 166 165 164 162 161 160 160 160 160 160 159 157 155 153 150 148 145 142 139 136 135 135 135 134 134 132 129 127 124 122 121 120 121
181 180 179 178 176 175 174 173 171 169 169 168 168 168 168 168 168 167 167 166 165 165 165 165 166 166 166 165 164 164 164 163 163 163 164 163 163 161 160 158 156 156 156 156 156 155 154 153 152 151 149 147 144 142 139 137 136 136 135 134 133 131 128 125 123 120 118 116 115
177 176 175 174 172 171 170 169 167 167 166 166 166 165 164 164 164 164 164 163 163 162 162 161 162 161 160 159 160 161 161 160 159 159 158 158 158 157 156 154 152 151 152 152 152 150 149 149 149 149 148 146 143 140 138 137 137 136 135 133 131 129 125 122 120 118 116 114 112
173 172 170 169 168 167 166 166 165 165 164 163 162 162 161 161 162 162 162 161 161 161 161 160 159 157 157 157 158 157 157 156 156 157 156 155 153 152 150 149 147 148 149 149 148 147 146 147 147 147 146 144 141 138 137 137 137 135 133 130 128 125 122 119 117 116 115 114 112
170 168 167 166 165 164 164 164 163 162 161 160 160 159 159 159 159 160 161 161 160 160 160 159 157 156 156 157 157 155 154 154 154 155 154 152 149 147 145 145 145 145 146 146 145 145 145 145 145 144 143 140 138 137 137 137 136 133 129 126 123 121 118 116 115 115 115 115 113
167 165 164 162 161 161 161 161 160 159 158 158 158 158 157 158 159 159 160 160 159 158 157 157 156 155 155 155 154 154 153 152 151 152 151 149 146 143 142 142 143 144 145 145 144 144 144 144 143 142 140 138 136 136 136 135 132 128 125 121 119 117 115 114 113 114 113 112 110
164 162 161 160 159 158 158 157 157 157 157 156 156 156 156 157 157 157 158 158 157 157 156 156 155 154 153 153 151 150 149 149 149 148 148 146 144 142 141 140 141 143 145 145 144 144 143 142 141 139 138 136 136 136 136 133 129 125 121 117 115 114 113 113 112 112 110 107 104
161 160 159 157 156 155 155 155 155 155 154 154 154 155 155 155 154 154 155 156 156 157 157 156 156 155 154 153 151 148 147 146 146 145 144 143 142 141 139 138 140 142 145 145 144 143 142 141 139 138 137 137 136 136 134 131 127 123 119 117 115 114 113 112 110 108 105 103 101
160 158 156 155 154 154 153 153 153 153 153 153 153 154 154 154 154 153 153 154 154 153 152 153 153 153 152 151 150 148 145 143 142 142 142 142 141 139 137 136 139 142 144 145 144 143 141 140 139 139 138 138 137 135 133 129 125 122 120 118 117 115 113 110 106 103 100 98 97
159 157 155 154 153 153 153 152 152 152 152 152 152 152 152 153 153 153 153 152 151 148 147 147 148 147 146 146 146 146 145 143 141 140 140 141 139 137 136 136 138 142 144 145 144 142 141 140 140 141 140 139 137 134 131 128 124 122 121 119 116 113 110 106 102 99 97 94 93
158 156 155 153 153 153 152 152 152 151 151 151 151 151 150 150 150 151 152 151 148 145 144 144 144 143 143 143 143 143 144 144 142 140 140 140 139 137 136 136 138 141 144 145 143 142 141 142 143 143 142 140 137 134 131 127 124 122 120 117 114 110 107 103 101 98 95 93 92
158 156 154 153 152 152 152 152 151 150 150 150 150 149 149 148 148 149 150 151 147 144 142 142 141 141 142 142 142 142 142 144 143 142 140 140 140 139 137 137 138 141 144 144 143 142 143 144 146 146 145 141 138 135 131 127 125 122 118 115 112 109 106 103 101 98 95 94 93
157 155 154 152 152 151 151 151 151 150 149 148 147 147 147 147 147 148 150 150 148 145 142 140 139 140 140 140 139 138 139 141 142 142 141 140 140 140 139 138 139 141 143 144 144 144 145 146 147 147 146 144 140 136 132 129 125 121 118 115 113 110 107 104 101 99 97 95 93
156 154 153 152 151 151 150 150 149 148 147 146 145 145 145 145 145 146 147 147 145 144 142 140 138 138 139 138 137 136 136 137 139 141 141 141 141 141 140 139 139 140 142 144 145 145 146 148 148 148 147 145 141 138 134 130 126 122 119 117 114 112 109 106 103 101 99 97 94
154 153 152 151 151 150 149 148 147 147 146 145 144 144 145 145 144 144 143 142 141 140 139 138 137 137 137 137 136 135 134 134 136 138 140 140 140 140 139 139 138 139 141 144 146 147 148 148 149 149 148 145 142 139 136 132 127 123 121 119 117 115 113 111 108 106 104 102 99
Height
733 734 736 737 738 740 741 742 744 745 746 747 749 750 751 752 754 755 757 758 759 761 762 763 764 766 767 768 769 770 771 773 774 776 777 779 780 781 782 784 784 786 786 787 788 789 790 791 792 793 793 794 794 795 796 796 797 798 798 798 799 799 800 800 801 802 803 803 804
731 733 734 735 737 739 740 741 743 744 745 746 747 749 750 751 753 754 756 757 758 759 761 763 764 765 766 768 769 769 771 772 773 774 776 778 779 780 781 783 784 784 785 786 787 788 789 789 790 791 792 793 793 794 794 795 796 797 797 798 798 799 799 800 800 801 802 803 804
729 731 733 734 735 737 738 739 741 742 743 745 746 748 749 750 752 753 754 756 757 759 760 762 763 764 765 767 768 769 770 771 772 774 775 777 778 779 780 781 783 784 784 785 786 786 787 788 789 790 791 791 792 792 793 794 795 796 797 797 798 798 799 799 799 800 801 802 803
728 729 731 732 733 734 736 737 739 740 742 744 745 747 748 749 751 752 754 755 757 758 759 760 762 763 765 766 767 769 769 771 772 773 774 775 777 778 779 780 781 782 783 784 784 785 786 787 788 789 789 790 791 791 792 793 794 795 796 796 797 798 798 799 799 800 800 801 802
726 727 729 730 731 733 734 736 738 739 741 743 744 745 747 748 750 751 753 754 755 757 758 759 761 762 764 765 766 768 769 770 771 772 774 774 776 777 778 779 780 781 782 783 784 784 785 786 787 788 789 789 789 790 790 791 793 794 795 796 797 797 797 798 798 799 800 801 801
724 725 727 728 730 731 733 735 737 738 740 741 743 744 745 747 748 750 751 753 754 756 757 759 760 762 763 764 766 767 768 769 770 772 773 774 775 776 777 778 779 780 781 782 783 784 784 785 786 787 787 788 788 789 790 791 792 793 794 795 796 796 797 797 798 799 799 800 801
721 723 725 727 729 730 732 734 735 737 739 740 741 742 744 745 747 748 750 751 753 755 756 758 759 761 762 763 764 766 767 768 769 771 772 773 774 775 776 777 778 779 780 781 782 783 784 784 785 785 786 787 788 789 789 791 792 793 794 794 795 795 796 796 797 798 799 799 800
720 722 724 725 727 729 731 733 734 736 737 738 739 741 742 744 746 747 749 751 752 754 755 757 758 759 761 762 764 765 766 767 769 770 771 773 774 774 776 777 778 779 779 780 781 782 783 784 784 784 785 786 787 788 789 790 791 792 793 794 794 794 795 796 797 798 799 799 800
719 720 722 724 726 728 729 731 733 734 735 737 738 740 741 743 745 746 748 749 751 752 754 755 757 759 760 761 762 764 765 766 768 769 770 772 773 774 775 776 777 778 779 779 780 781 782 782 783 784 785 785 786 787 788 789 791 791 792 792 793 794 795 796 796 797 798 799 799
717 719 721 723 724 726 728 730 731 733 734 736 737 739 740 742 744 745 747 748 750 752 753 754 756 758 759 760 762 763 764 765 767 768 769 771 772 773 774 775 776 777 778 779 779 780 781 781 782 783 784 785 785 786 787 789 790 790 791 792 793 794 794 795 796 797 798 798 799
715 717 719 721 723 725 727 729 730 732 733 734 736 738 739 741 742 744 746 747 749 751 752 754 755 757 758 759 761 762 763 764 766 767 769 770 771 773 774 774 775 776 777 778 779 779 780 780 782 783 784 784 785 786 787 788 789 790 790 791 792 793 794 795 796 796 797 798 798
714 715 718 719 722 724 726 727 729 730 732 734 735 736 738 739 741 743 745 746 748 749 751 753 754 756 757 759 760 761 762 764 765 767 768 769 771 772 773 774 774 775 776 777 778 778 779 780 781 782 783 783 784 785 786 788 788 789 790 791 792 793 794 794 795 796 797 797 798
712 714 717 719 721 723 724 726 728 729 731 732 733 735 737 738 740 742 744 745 746 748 750 752 753 755 756 758 759 760 761 763 764 766 767 769 770 771 772 773 774 774 775 776 777 778 779 779 780 781 782 783 784 785 786 787 788 789 790 791 792 793 794 794 795 796 796 797 798
711 714 715 717 719 721 723 724 726 728 729 731 732 734 735 737 739 741 742 744 745 747 749 751 753 754 755 757 758 759 761 762 764 765 767 768 769 770 771 772 773 774 775 776 776 777 778 779 779 780 781 782 783 784 785 786 787 789 789 790 791 792 794 794 795 796 797 797 798
710 712 714 716 718 719 721 723 725 726 728 729 731 733 734 736 738 739 741 743 744 746 748 750 752 753 754 756 757 759 760 761 763 764 766 767 768 769 770 771 772 773 774 775 776 777 777 778 779 779 780 782 783 784 785 786 787 789 789 790 791 792 794 794 795 796 797 797 798
709 711 713 714 716 718 720 722 724 725 726 728 729 732 734 735 737 739 740 742 744 746 747 749 750 752 754 755 756 758 759 761 762 764 765 766 767 768 769 770 772 773 774 774 775 776 777 778 778 779 780 781 783 784 785 786 787 789 790 791 792 793 794 794 795 796 797 797 798
707 709 711 713 714 716 718 720 722 724 725 726 728 730 732 734 736 738 739 741 743 744 746 748 749 751 753 754 756 757 759 760 762 763 764 765 766 767 769 770 771 772 773 774 774 775 776 777 778 779 780 781 782 784 785 786 788 789 790 791 792 793 794 795 795 796 797 797 798
705 707 709 711 713 714 716 718 720 722 723 725 727 729 731 733 735 736 738 740 742 744 745 747 749 750 752 753 755 756 758 759 760 762 763 764 765 766 768 769 770 771 772 773 774 775 776 777 778 779 780 781 783 784 785 786 788 789 790 791 792 793 794 795 795 796 797 797 798
703 705 707 709 711 712 714 716 718 720 722 724 727 729 730 732 734 735 737 739 741 743 744 746 748 749 751 752 754 755 757 758 759 761 762 763 764 766 767 769 770 771 772 773 774 774 775 776 778 779 780 781 783 784 785 787 788 789 790 791 792 793 794 795 796 796 797 798 798
701 703 705 707 709 711 713 715 717 719 721 724 726 728 730 731 733 734 736 739 740 742 744 745 747 749 750 751 753 754 756 758 759 760 761 763 764 765 767 768 769 770 771 772 773 774 775 776 777 779 780 781 782 784 785 787 788 789 790 792 793 794 794 795 796 796 797 798 798
699 701 703 705 708 709 712 714 716 718 721 723 725 727 729 731 732 734 736 738 739 741 743 744 746 748 749 751 752 754 756 757 758 759 761 762 764 765 766 767 768 769 771 772 773 774 775 776 777 779 780 781 782 784 785 787 788 789 790 791 793 794 794 795 796 797 797 798 799
697 699 702 704 707 709 711 713 716 718 720 723 724 726 728 730 732 734 735 737 739 740 742 744 745 747 748 750 752 753 755 757 758 759 760 762 763 764 765 767 768 769 770 772 773 774 775 776 777 779 780 781 783 784 785 787 788 789 790 791 792 794 794 795 796 797 798 798 799
696 698 701 704 706 708 710 713 715 718 720 722 724 725 727 729 731 733 735 737 739 740 742 744 745 747 748 749 751 753 754 756 758 759 760 761 763 764 765 766 768 769 770 771 772 774 775 776 778 779 780 781 783 784 785 787 788 789 790 791 792 794 795 796 796 797 798 799 799
695 697 700 703 705 708 710 712 715 717 719 721 723 724 726 729 730 733 734 736 738 739 741 743 745 747 748 750 751 752 754 755 757 759 760 761 762 764 765 766 767 769 769 771 772 773 774 776 778 779 780 782 783 784 786 787 788 789 790 791 792 793 794 796 796 797 798 799 800
694 696 699 702 704 706 709 711 713 715 717 719 721 723 725 728 730 732 734 735 737 739 741 743 745 747 748 749 751 752 753 754 756 757 759 761 762 763 764 766 767 768 769 771 772 773 775 776 777 779 780 781 783 784 786 787 789 789 790 791 792 793 794 795 796 797 798 799 800
693 695 698 700 703 705 708 710 712 714 716 718 720 722 724 727 729 731 733 735 737 739 741 743 744 746 748 749 751 752 754 754 756 757 758 760 762 763 764 766 767 768 769 771 772 774 775 776 777 779 780 781 783 784 786 788 789 790 791 792 793 793 794 795 796 797 799 799 800
692 694 697 699 701 704 706 708 710 713 715 717 719 721 723 726 728 730 732 734 737 739 740 742 744 745 747 749 750 752 753 754 756 757 758 759 761 763 764 766 767 769 770 771 773 774 776 777 778 779 780 781 783 784 786 788 789 790 791 792 793 793 794 795 796 798 799 800 801
690 693 695 698 700 703 705 707 709 712 714 716 718 720 723 725 727 729 732 734 736 738 740 742 743 745 747 749 750 751 753 754 756 757 759 760 762 763 764 766 767 769 770 772 774 775 776 777 779 779 780 781 783 784 786 788 789 790 791 792 793 794 794 795 796 798 799 800 801
689 691 694 697 699 702 704 706 708 710 712 714 717 719 722 724 726 729 731 733 735 737 739 741 743 745 747 748 750 751 753 754 756 757 759 760 762 763 764 766 768 769 771 773 774 775 776 778 779 780 781 782 783 784 786 788 789 790 792 793 793 794 795 796 797 798 799 801 802
688 690 693 695 698 700 703 705 707 709 712 714 716 719 721 724 726 728 730 732 734 736 738 740 742 744 746 748 749 751 753 754 756 758 759 760 762 764 765 766 768 770 772 773 774 776 777 778 779 780 781 782 783 784 786 788 789 790 792 793 794 794 795 797 798 799 800 801 802
687 689 692 694 697 699 702 704 707 709 711 714 716 718 721 723 725 727 729 731 733 735 737 739 741 743 745 747 749 751 753 754 756 758 759 760 762 764 765 767 769 771 772 774 775 776 777 778 779 780 781 782 783 784 786 788 790 791 792 793 794 795 796 798 799 800 801 802 803
686 689 691 694 696 699 702 704 707 709 711 713 716 718 720 723 725 727 729 731 733 735 737 739 740 743 745 747 749 751 753 754 756 758 759 760 762 764 766 768 770 771 773 774 775 776 777 778 779 780 781 782 784 785 787 789 790 791 793 794 795 796 797 799 800 801 802 803 803
685 688 690 693 696 699 701 704 706 709 711 713 715 718 720 722 725 727 729 731 733 734 736 738 740 742 744 747 749 751 753 754 756 758 759 760 762 764 766 769 771 772 773 774 775 776 777 778 779 780 781 783 784 786 788 789 790 792 793 794 796 797 799 800 801 802 803 804 804
684 687 690 693 695 698 701 703 705 708 711 713 716 718 720 722 724 727 729 730 732 734 735 737 739 742 744 746 748 750 753 755 756 758 759 761 762 764 767 769 771 773 774 774 775 776 777 778 779 780 782 783 785 787 788 789 790 792 793 795 797 798 800 801 802 803 803 804 804
684 686 689 692 694 697 700 703 705 708 710 713 716 718 720 722 724 726 728 730 732 734 736 738 740 742 744 746 748 750 752 754 756 758 759 761 763 765 767 769 771 773 774 775 776 777 778 779 779 781 782 784 785 787 789 789 791 793 794 796 798 799 800 802 803 804 804 804 805
683 685 688 691 694 696 699 702 705 707 710 713 715 718 720 722 724 726 728 729 732 734 736 739 741 743 745 747 749 751 752 754 756 758 760 762 764 765 767 769 772 774 775 775 776 777 778 779 780 781 783 784 786 787 789 790 792 793 795 797 799 800 801 802 803 804 805 805 806
682 684 687 690 693 696 699 701 704 707 709 712 714 717 719 722 724 726 728 729 731 734 736 739 741 743 745 747 749 752 753 754 756 759 761 763 764 765 767 769 772 774 775 776 776 777 778 779 780 781 783 784 786 787 789 790 792 794 796 798 799 801 802 803 804 805 806 806 807
681 684 686 689 692 695 698 701 704 706 709 712 714 717 719 721 724 726 728 729 731 733 736 739 741 743 745 747 750 752 754 755 757 759 761 764 764 765 766 769 772 774 776 776 777 777 779 780 781 782 783 784 785 787 789 791 793 795 797 798 800 801 803 804 805 806 806 807 808
682 684 686 688 691 694 698 700 703 706 709 711 714 717 719 721 724 726 728 729 730 733 735 738 741 744 746 748 750 753 755 757 758 760 762 764 765 765 766 768 771 774 775 776 777 778 779 780 781 782 783 784 785 787 789 791 793 795 797 799 800 802 804 804 805 806 807 808 809
682 684 686 689 691 694 697 700 703 705 708 711 714 717 719 721 724 726 728 730 732 733 735 738 741 744 746 749 751 754 757 759 760 761 762 764 765 766 767 768 771 774 775 777 778 779 780 781 782 783 784 784 786 787 789 791 793 795 797 799 800 802 804 805 806 807 808 809 809
682 684 687 689 692 694 697 700 703 705 708 711 714 716 719 721 724 726 729 731 733 734 736 739 741 744 747 749 751 754 757 760 762 763 764 764 766 767 768 769 770 773 775 777 778 779 780 781 782 783 784 785 786 788 789 791 793 795 797 799 801 802 804 806 807 808 809 809 810